HB9DDE-10 Weather Reports


Display with metric or nautical units.
time (UTC)temp
F
wind
direction
speed
MPH
gust
MPH
rain 1hr
in
rain 24hr
in
rain mn
in
humidity
%
barometer
mb
20260507171351 60 356 1.0 4.0 0.00 0.47 0.09 63 1014.6
20260507170844 60 347 2.0 4.0 0.00 0.47 0.09 62 1014.5
20260507170335 61 310 0.0 3.0 0.00 0.47 0.09 61 1014.5
20260507165845 61 25 0.0 4.0 0.00 0.47 0.09 61 1014.5
20260507165335 61 305 1.0 4.0 0.00 0.47 0.09 60 1014.5
20260507164845 61 310 1.0 4.0 0.00 0.47 0.09 61 1014.6
20260507164354 61 300 1.0 4.0 0.00 0.47 0.09 61 1014.6
20260507163842 61 17 2.0 5.0 0.00 0.47 0.09 59 1014.5
20260507163352 62 342 1.0 4.0 0.00 0.47 0.09 58 1014.5
20260507162843 62 333 0.0 4.0 0.00 0.47 0.09 60 1014.4
20260507162337 62 295 1.0 4.0 0.00 0.47 0.09 59 1014.4
20260507161846 62 233 1.0 4.0 0.00 0.47 0.09 59 1014.4
20260507161336 62 326 1.0 4.0 0.00 0.47 0.09 61 1014.5
20260507160846 62 183 0.0 3.0 0.00 0.47 0.09 61 1014.5
20260507160355 62 340 1.0 3.0 0.00 0.47 0.09 60 1014.4
20260507155842 62 182 0.0 2.0 0.00 0.47 0.09 64 1014.4
20260507155352 62 309 1.0 5.0 0.00 0.47 0.09 60 1014.5
20260507154841 62 360 1.0 5.0 0.00 0.47 0.09 60 1014.5
20260507154350 62 325 0.0 5.0 0.00 0.47 0.09 60 1014.5
20260507153843 63 18 1.0 5.0 0.00 0.47 0.09 60 1014.5
20260507153353 64 300 2.0 7.0 0.00 0.47 0.09 57 1014.4
20260507153148 64 17 2.0 7.0 0.00 0.47 0.09 59 1014.4
20260507152842 64 17 2.0 7.0 0.00 0.47 0.09 59 1014.4
20260507152545 64 290 2.0 5.0 0.00 0.47 0.09 59 1014.4
20260507152352 64 316 1.0 5.0 0.00 0.47 0.09 60 1014.4
20260507151842 64 290 2.0 5.0 0.00 0.47 0.09 59 1014.4
20260507151352 64 188 1.0 5.0 0.00 0.47 0.09 60 1014.4
20260507150842 64 289 3.0 5.0 0.00 0.47 0.09 57 1014.5
20260507150352 64 303 0.0 5.0 0.00 0.47 0.09 58 1014.4
20260507145846 64 319 2.0 5.0 0.00 0.47 0.09 58 1014.5
20260507145335 64 307 1.0 4.0 0.00 0.47 0.09 62 1014.4
20260507144844 63 23 1.0 5.0 0.00 0.47 0.09 59 1014.4
20260507144354 63 307 1.0 5.0 0.00 0.47 0.09 61 1014.5
20260507143843 62 205 1.0 5.0 0.00 0.47 0.09 64 1014.5
20260507143353 62 342 1.0 5.0 0.00 0.47 0.09 61 1014.5
20260507142842 63 324 1.0 4.0 0.00 0.47 0.09 61 1014.5
20260507142351 64 329 0.0 4.0 0.00 0.47 0.09 61 1014.5
20260507141842 64 321 1.0 5.0 0.00 0.47 0.09 63 1014.5
20260507141336 63 307 1.0 6.0 0.00 0.47 0.09 62 1014.5
20260507140846 63 316 3.0 9.0 0.00 0.47 0.09 63 1014.5
20260507140355 63 282 3.0 9.0 0.00 0.47 0.09 64 1014.5
20260507135844 63 310 1.0 6.0 0.00 0.47 0.09 64 1014.6
20260507135354 64 339 1.0 6.0 0.00 0.47 0.09 66 1014.7
20260507134842 63 257 0.0 3.0 0.08 0.47 0.09 68 1014.7
20260507134351 62 323 0.0 3.0 0.16 0.47 0.09 68 1014.8
20260507133842 61 285 0.0 4.0 0.16 0.47 0.09 70 1014.9
20260507133336 60 333 1.0 4.0 0.16 0.47 0.09 71 1014.9
20260507132846 60 320 0.0 4.0 0.16 0.47 0.09 71 1014.9
20260507132335 60 326 1.0 4.0 0.16 0.47 0.09 74 1014.9
20260507131847 59 221 0.0 1.0 0.16 0.47 0.09 76 1015.0
20260507131337 58 284 0.0 3.0 0.16 0.47 0.09 77 1015.0
20260507130850 58 332 0.0 3.0 0.16 0.47 0.09 80 1015.0
20260507130339 57 285 1.0 3.0 0.16 0.71 0.09 80 1015.0
20260507125849 57 300 0.0 2.0 0.16 0.71 0.09 82 1015.2
20260507125338 57 324 0.0 3.0 0.16 0.71 0.09 81 1015.2
20260507124851 57 281 1.0 8.0 0.08 0.63 0.08 77 1015.2
20260507124340 58 11 2.0 8.0 0.00 0.55 0.06 72 1015.1
20260507123850 59 314 2.0 7.0 0.00 0.55 0.06 71 1015.1
20260507123340 60 293 2.0 6.0 0.00 0.55 0.06 68 1015.1
20260507122849 61 291 3.0 6.0 0.00 0.55 0.06 67 1015.0
20260507122339 61 348 1.0 5.0 0.00 0.55 0.06 68 1015.0
20260507121849 62 303 1.0 5.0 0.00 0.55 0.06 71 1014.9
20260507121340 61 348 1.0 6.0 0.00 0.55 0.06 68 1014.9
20260507120849 61 227 1.0 6.0 0.00 0.55 0.06 69 1015.0
20260507120343 62 345 1.0 8.0 0.00 1.10 0.06 68 1015.0
20260507115853 62 194 2.0 8.0 0.00 1.10 0.06 67 1014.9
20260507115343 61 259 0.0 4.0 0.00 1.10 0.06 70 1015.0
20260507114854 61 264 2.0 6.0 0.00 1.10 0.06 67 1015.0
20260507113841 59 234 0.0 2.0 0.00 1.10 0.06 73 1015.1
20260507113352 59 24 0.0 4.0 0.00 1.10 0.06 71 1015.1
20260507112842 59 318 1.0 5.0 0.00 1.10 0.06 70 1015.1
20260507112335 59 244 1.0 5.0 0.00 1.10 0.06 73 1015.1
20260507111846 59 245 2.0 6.0 0.00 1.10 0.06 72 1015.1
20260507111335 59 316 2.0 6.0 0.00 1.10 0.06 71 1015.1
20260507110845 60 335 1.0 6.0 0.00 1.10 0.06 71 1015.1
20260507110355 60 333 1.0 3.0 0.00 1.10 0.06 67 1015.1
20260507105341 60 252 0.0 2.0 0.00 1.10 0.06 66 1015.1
20260507104851 60 113 0.0 3.0 0.00 1.10 0.06 69 1015.1
20260507104344 59 288 0.0 3.0 0.00 1.10 0.06 70 1015.2
20260507103835 59 338 1.0 3.0 0.00 1.10 0.06 68 1015.2
20260507103346 59 298 0.0 2.0 0.00 1.10 0.06 71 1015.2
20260507102835 59 298 0.0 3.0 0.00 1.10 0.06 72 1015.2
20260507102343 59 333 1.0 3.0 0.00 1.10 0.06 70 1015.2
20260507101853 59 7 0.0 4.0 0.00 1.10 0.06 71 1015.3
20260507101342 59 124 0.0 4.0 0.00 1.10 0.06 72 1015.3
20260507100852 59 158 1.0 3.0 0.00 1.10 0.06 76 1015.2
20260507100341 58 221 0.0 3.0 0.00 1.18 0.06 76 1015.3
20260507095835 57 267 1.0 3.0 0.00 1.18 0.06 77 1015.3
20260507095346 56 143 1.0 3.0 0.00 1.18 0.06 78 1015.4
20260507094835 56 229 1.0 3.0 0.00 1.18 0.06 80 1015.4
20260507094346 56 163 0.0 3.0 0.00 1.18 0.06 80 1015.4
20260507093836 56 307 1.0 3.0 0.00 1.18 0.06 80 1015.5
20260507093345 55 308 0.0 2.0 0.00 1.18 0.06 85 1015.5
20260507092853 55 308 0.0 2.0 0.00 1.18 0.06 84 1015.4
20260507092346 55 308 0.0 2.0 0.00 1.18 0.06 85 1015.4
20260507091840 54 308 0.0 2.0 0.00 1.18 0.06 85 1015.4
20260507091351 54 56 0.0 3.0 0.00 1.18 0.06 85 1015.4
20260507090841 54 210 1.0 3.0 0.00 1.18 0.06 86 1015.4
20260507090351 53 306 0.0 4.0 0.00 1.22 0.06 87 1015.4
20260507085841 53 295 0.0 4.0 0.00 1.22 0.06 87 1015.4
20260507085351 53 287 0.0 3.0 0.00 1.22 0.06 86 1015.4
20260507084841 53 318 1.0 4.0 0.00 1.22 0.06 87 1015.4
20260507084351 53 124 1.0 3.0 0.00 1.22 0.06 87 1015.4
20260507083840 53 192 0.0 2.0 0.00 1.22 0.06 88 1015.4
20260507083354 52 32 1.0 3.0 0.00 1.22 0.06 89 1015.4
20260507082843 52 141 1.0 3.0 0.00 1.22 0.06 90 1015.3
20260507082353 52 169 0.0 4.0 0.00 1.22 0.06 92 1015.3
20260507081842 52 218 2.0 5.0 0.00 1.22 0.06 91 1015.4
20260507081352 51 144 2.0 5.0 0.00 1.22 0.06 92 1015.5
20260507080841 51 307 0.0 2.0 0.00 1.22 0.06 93 1015.5
20260507080351 51 183 0.0 1.0 0.00 1.22 0.06 93 1015.4
20260507075840 51 152 0.0 1.0 0.00 1.22 0.06 94 1015.4
20260507075334 51 148 0.0 1.0 0.00 1.22 0.06 94 1015.4
20260507074845 51 148 0.0 1.0 0.00 1.22 0.06 95 1015.3
20260507074354 50 148 0.0 0.0 0.00 1.22 0.06 95 1015.3
20260507073841 50 148 0.0 0.0 0.00 1.22 0.06 95 1015.3
20260507073350 50 148 0.0 0.0 0.00 1.22 0.06 96 1015.2
20260507072840 50 148 0.0 0.0 0.04 1.22 0.06 96 1015.2
20260507072351 49 148 0.0 0.0 0.04 1.22 0.06 96 1015.2
20260507071841 49 148 0.0 0.0 0.04 1.22 0.06 96 1015.2
20260507071351 49 148 0.0 0.0 0.04 1.22 0.06 96 1015.2
20260507070845 49 148 0.0 0.0 0.08 1.22 0.06 97 1015.2
20260507070336 48 148 0.0 0.0 0.08 1.22 0.06 97 1015.1
20260507065848 48 148 0.0 0.0 0.08 1.22 0.06 97 1015.2
20260507065336 48 148 0.0 0.0 0.08 1.22 0.06 97 1015.1
20260507064848 48 148 0.0 0.0 0.08 1.22 0.06 97 1015.0
20260507064337 48 148 0.0 0.0 0.08 1.22 0.06 97 1015.0
20260507063847 48 148 0.0 0.0 0.08 1.22 0.06 97 1015.0
20260507063337 47 148 0.0 0.0 0.08 1.22 0.06 97 1014.9
20260507062848 47 148 0.0 0.0 0.04 1.18 0.06 97 1014.9
20260507062341 47 148 0.0 0.0 0.04 1.18 0.06 97 1014.9
20260507061851 47 148 0.0 0.0 0.04 1.18 0.06 97 1014.8
20260507060851 47 148 0.0 0.0 0.00 1.14 0.05 97 1014.8
20260507060341 47 148 0.0 0.0 0.00 1.14 0.05 97 1014.7
20260507055850 47 148 0.0 0.0 0.00 1.14 0.05 97 1014.7
20260507055339 47 148 0.0 0.0 0.00 1.14 0.05 97 1014.7
20260507054848 47 148 0.0 0.0 0.00 1.14 0.05 97 1014.5
20260507054342 47 148 0.0 0.0 0.00 1.14 0.05 97 1014.5
20260507053853 47 148 0.0 0.0 0.00 1.14 0.05 97 1014.5
20260507053343 46 148 0.0 0.0 0.00 1.14 0.05 97 1014.5
20260507052854 46 148 0.0 0.0 0.00 1.14 0.05 97 1014.4
20260507052344 46 148 0.0 0.0 0.00 1.14 0.05 97 1014.3
20260507051854 46 148 0.0 0.0 0.00 1.14 0.05 97 1014.3
20260507051342 46 148 0.0 0.0 0.00 1.14 0.05 97 1014.3
20260507050852 46 148 0.0 0.0 0.00 1.14 0.05 97 1014.2
20260507050342 46 148 0.0 0.0 0.00 1.14 0.05 97 1014.2
20260507045835 46 148 0.0 0.0 0.00 1.14 0.05 97 1014.1
20260507045348 46 148 0.0 0.0 0.00 1.14 0.05 97 1014.0
20260507044837 46 148 0.0 0.0 0.00 1.14 0.05 97 1014.0
20260507044349 46 148 0.0 0.0 0.00 1.14 0.05 97 1014.0
20260507043840 46 148 0.0 0.0 0.00 1.14 0.05 97 1013.9
20260507043348 46 148 0.0 0.0 0.00 1.14 0.05 97 1013.8
20260507042838 46 148 0.0 0.0 0.00 1.14 0.05 97 1013.8
20260507042348 46 148 0.0 0.0 0.00 1.14 0.05 97 1013.8
20260507041842 46 148 0.0 0.0 0.00 1.14 0.05 97 1013.8
20260507041352 46 148 0.0 0.0 0.00 1.14 0.05 97 1013.7
20260507040841 46 148 0.0 0.0 0.04 1.14 0.05 97 1013.7
20260507040351 46 148 0.0 0.0 0.04 1.14 0.05 97 1013.7
20260507035840 46 148 0.0 0.0 0.04 1.14 0.05 97 1013.7
20260507035350 46 148 0.0 0.0 0.04 1.14 0.05 97 1013.7
20260507034841 46 148 0.0 0.0 0.04 1.14 0.05 97 1013.7
20260507034351 46 148 0.0 0.0 0.04 1.14 0.05 96 1013.6
20260507033842 46 148 0.0 0.0 0.04 1.14 0.05 96 1013.5
20260507033336 46 148 0.0 1.0 0.04 1.14 0.05 96 1013.6
20260507032846 46 148 0.0 0.0 0.04 1.14 0.05 96 1013.5
20260507032335 46 148 0.0 0.0 0.04 1.14 0.05 96 1013.5
20260507031342 46 148 0.0 0.0 0.08 1.14 0.05 96 1013.4
20260507030852 46 148 0.0 0.0 0.04 1.10 0.04 96 1013.4
20260507030341 46 148 0.0 0.0 0.04 1.10 0.04 96 1013.4
20260507025850 46 148 0.0 0.0 0.08 1.10 0.04 96 1013.5
20260507025340 46 148 0.0 0.0 0.08 1.10 0.04 96 1013.4
20260507024850 46 148 0.0 0.0 0.08 1.10 0.04 96 1013.3
20260507024346 46 148 0.0 0.0 0.08 1.10 0.04 96 1013.4
20260507023836 46 148 0.0 0.0 0.12 1.10 0.04 96 1013.4
20260507023345 46 148 0.0 0.0 0.12 1.10 0.04 96 1013.4
20260507022835 46 148 0.0 0.0 0.12 1.10 0.04 96 1013.3
20260507022345 46 148 0.0 1.0 0.16 1.10 0.04 96 1013.2
20260507021835 46 148 0.0 1.0 0.12 1.06 0.03 96 1013.2
20260507021345 46 148 0.0 1.0 0.12 1.06 0.03 97 1013.2
20260507020853 46 148 0.0 2.0 0.12 1.06 0.03 97 1013.2
20260507020341 46 148 1.0 3.0 0.12 1.06 0.03 97 1013.2
20260507015834 46 153 0.0 3.0 0.08 1.02 0.02 97 1013.2
20260507015346 46 152 0.0 3.0 0.08 1.02 0.02 97 1013.2
20260507014836 46 139 0.0 3.0 0.08 1.02 0.02 97 1013.2
20260507014348 46 139 0.0 3.0 0.08 1.02 0.02 97 1013.1
20260507013936 46 125 0.0 2.0 0.04 0.98 0.02 97 1013.0
20260507013420 45 147 0.0 2.0 0.04 0.98 0.02 97 1013.0
20260507012845 45 147 0.0 1.0 0.04 0.98 0.02 97 1013.0
20260507012335 45 147 0.0 1.0 0.00 0.94 0.01 97 1013.0
20260507011844 45 147 0.0 0.0 0.00 0.94 0.01 97 1012.9
20260507011352 44 147 0.0 0.0 0.04 0.94 0.01 97 1012.9
20260507010842 44 147 0.0 0.0 0.04 0.94 0.01 97 1012.9
20260507010351 44 147 0.0 0.0 0.04 0.94 0.01 97 1012.9
20260507005843 44 147 0.0 0.0 0.04 0.94 0.01 97 1012.9
20260507005353 44 147 0.0 0.0 0.04 0.94 0.01 96 1012.9
20260507004842 44 147 0.0 0.0 0.04 0.94 0.01 97 1012.8
20260507004353 44 147 0.0 0.0 0.04 0.94 0.01 97 1012.9
20260507003844 44 147 0.0 0.0 0.04 0.94 0.01 97 1012.8
20260507003334 44 147 0.0 0.0 0.04 0.94 0.01 97 1012.8
20260507002844 44 147 0.0 0.0 0.04 0.94 0.01 97 1012.7
20260507002433 44 147 0.0 0.0 0.04 0.94 0.01 97 1012.8
20260507001840 44 147 0.0 0.0 0.04 0.94 0.01 97 1012.7
20260507001350 44 147 0.0 0.0 0.00 0.91 0.00 97 1012.8
20260507000845 44 147 0.0 0.0 0.00 0.91 0.00 96 1012.8
20260507000336 44 147 0.0 0.0 0.00 0.91 0.00 96 1012.9
20260506235845 44 147 0.0 0.0 0.00 0.91 0.00 96 1012.9
20260506235354 44 147 0.0 0.0 0.00 0.91 0.00 97 1012.8
20260506234844 44 147 0.0 0.0 0.00 0.91 0.00 97 1012.8
20260506234353 44 147 0.0 0.0 0.00 0.91 0.00 97 1012.9
20260506233842 44 147 0.0 1.0 0.00 0.91 0.00 97 1012.8
20260506233352 44 147 0.0 1.0 0.00 0.91 0.00 97 1012.8
20260506232845 43 147 0.0 0.0 0.00 0.91 0.00 96 1012.8
20260506232335 43 147 0.0 0.0 0.00 0.91 0.00 96 1012.8
20260506231848 43 147 0.0 0.0 0.00 0.91 0.00 96 1012.8
20260506231336 43 147 0.0 0.0 0.00 0.91 0.00 96 1012.7
20260506230846 43 147 0.0 0.0 0.00 0.91 0.00 96 1012.7
20260506230355 43 147 0.0 0.0 0.00 0.91 0.00 96 1012.7
20260506225843 43 147 0.0 0.0 0.00 0.91 0.00 96 1012.7
20260506225352 44 147 0.0 0.0 0.00 0.91 0.00 96 1012.6
20260506224843 44 147 0.0 0.0 0.00 0.91 0.00 96 1012.6
20260506224336 44 147 0.0 0.0 0.00 0.91 0.00 96 1012.6
20260506223848 44 147 0.0 0.0 0.00 0.91 0.00 96 1012.6
20260506223336 44 147 0.0 0.0 0.00 0.91 0.00 96 1012.7
20260506222847 44 147 0.0 0.0 0.00 0.91 0.00 96 1012.6
20260506222336 44 147 0.0 0.0 0.00 0.91 0.00 96 1012.6
20260506221847 44 147 0.0 0.0 0.00 0.91 0.00 96 1012.6
20260506221336 44 147 0.0 0.0 0.00 0.91 0.00 96 1012.5
20260506220846 44 147 0.0 0.0 0.00 0.91 0.00 95 1012.5
20260506220341 44 147 0.0 0.0 0.00 0.91 0.18 96 1012.6
20260506215851 44 147 0.0 0.0 0.00 0.91 0.18 96 1012.6
20260506215341 44 147 0.0 0.0 0.00 0.91 0.18 96 1012.6
20260506214850 44 147 0.0 0.0 0.00 0.91 0.18 95 1012.6
20260506214341 44 147 0.0 0.0 0.00 0.91 0.18 95 1012.4
20260506213850 44 147 0.0 0.0 0.00 0.91 0.18 95 1012.5
20260506213439 44 147 0.0 0.0 0.00 0.91 0.18 95 1012.5
20260506212842 44 147 0.0 1.0 0.00 0.91 0.18 95 1012.5
20260506212352 45 147 0.0 1.0 0.00 0.91 0.18 95 1012.6
20260506211843 45 147 0.0 0.0 0.00 0.91 0.18 95 1012.4
20260506211336 45 147 0.0 0.0 0.00 0.91 0.18 95 1012.3
20260506210846 45 147 0.0 0.0 0.00 0.91 0.18 95 1012.3
20260506210336 45 147 0.0 0.0 0.00 0.91 0.18 95 1012.4
20260506205846 45 147 0.0 0.0 0.00 0.91 0.18 95 1012.3
20260506205337 45 147 0.0 0.0 0.00 0.91 0.18 95 1012.3
20260506204846 45 147 0.0 0.0 0.00 0.91 0.18 95 1012.3
20260506204353 45 147 0.0 0.0 0.00 0.91 0.18 95 1012.3
20260506203842 45 147 0.0 0.0 0.00 0.91 0.18 94 1012.2
20260506202846 45 147 0.0 0.0 0.00 0.91 0.18 94 1012.1
20260506202335 45 147 0.0 0.0 0.00 0.91 0.18 94 1012.0
20260506201844 46 147 0.0 0.0 0.00 0.91 0.18 94 1012.0
20260506201353 46 147 0.0 0.0 0.00 0.91 0.18 94 1011.8
20260506200841 46 147 0.0 0.0 0.00 0.91 0.18 94 1011.7
20260506200349 46 147 0.0 0.0 0.00 0.91 0.18 94 1011.7
20260506195839 46 147 0.0 0.0 0.00 0.91 0.18 93 1011.6
20260506195350 46 147 0.0 0.0 0.00 0.91 0.18 93 1011.6
20260506194840 47 147 0.0 0.0 0.00 0.91 0.18 93 1011.4
20260506194335 47 147 0.0 0.0 0.00 0.91 0.18 92 1011.4
20260506193844 47 147 0.0 0.0 0.00 0.91 0.18 92 1011.3
20260506193334 47 147 0.0 0.0 0.00 0.91 0.18 92 1011.3
20260506192846 48 147 0.0 0.0 0.00 0.91 0.18 92 1011.3
20260506192334 48 147 0.0 2.0 0.00 0.91 0.18 91 1011.2
20260506191844 48 147 0.0 2.0 0.00 0.91 0.18 91 1011.2
20260506191351 48 147 1.0 2.0 0.00 0.91 0.18 90 1011.2
20260506190839 49 147 1.0 4.0 0.00 0.91 0.18 89 1011.1
20260506190349 49 147 2.0 4.0 0.00 0.91 0.18 89 1011.0
20260506185842 50 147 2.0 4.0 0.00 0.91 0.18 89 1011.0
20260506185351 49 147 1.0 5.0 0.00 0.91 0.18 89 1011.0
20260506184842 49 153 2.0 4.0 0.00 0.91 0.18 89 1011.0
20260506184352 50 148 2.0 3.0 0.00 0.91 0.18 89 1011.0
20260506183841 50 141 2.0 3.0 0.00 0.91 0.18 87 1010.9
20260506183352 51 141 2.0 3.0 0.00 0.91 0.18 86 1010.8
20260506182840 51 146 1.0 4.0 0.00 0.91 0.18 85 1010.7
20260506182351 51 131 1.0 5.0 0.00 0.91 0.18 85 1010.6
20260506181844 51 163 2.0 5.0 0.00 0.91 0.18 85 1010.6
20260506181334 52 81 1.0 5.0 0.00 0.91 0.18 84 1010.7
20260506180845 52 160 2.0 4.0 0.00 0.91 0.18 84 1010.6
20260506180354 52 142 1.0 4.0 0.00 0.91 0.18 83 1010.5
20260506175843 53 141 2.0 5.0 0.00 0.91 0.18 82 1010.5
20260506175353 53 90 1.0 5.0 0.00 0.91 0.18 82 1010.5
20260506174841 53 152 1.0 4.0 0.00 0.91 0.18 81 1010.5
20260506174352 54 86 1.0 3.0 0.00 0.91 0.18 82 1010.5
20260506173842 53 142 0.0 4.0 0.00 0.91 0.18 83 1010.4
20260506173335 53 145 1.0 5.0 0.00 0.91 0.18 84 1010.3
20260506172844 53 153 0.0 5.0 0.00 0.91 0.18 84 1010.3
20260506172335 52 167 1.0 4.0 0.00 0.91 0.18 84 1010.3
20260506171845 52 169 1.0 2.0 0.00 0.91 0.18 85 1010.2